TimeCDT,TemperatureF,Dew PointF,Humidity,Sea Level PressureIn,VisibilityMPH,Wind Direction,Wind SpeedMPH,Gust SpeedMPH,PrecipitationIn,Events,Conditions,WindDirDegrees,DateUTC
12:13 AM,64.4,60.8,88,30.06,10.0,South,5.8,-,N/A,,Clear,170,2013-08-18 05:13:00
12:34 AM,64.4,60.8,88,30.07,10.0,South,5.8,-,N/A,,Clear,170,2013-08-18 05:34:00
12:54 AM,64.4,59.0,83,30.07,10.0,South,4.6,-,N/A,,Clear,180,2013-08-18 05:54:00
1:13 AM,62.6,59.0,88,30.07,10.0,South,4.6,-,N/A,,Clear,190,2013-08-18 06:13:00
1:34 AM,62.6,59.0,88,30.08,10.0,South,5.8,-,N/A,,Clear,180,2013-08-18 06:34:00
1:54 AM,62.6,57.2,82,30.07,10.0,South,4.6,-,N/A,,Clear,180,2013-08-18 06:54:00
2:13 AM,62.6,57.2,82,30.07,10.0,South,4.6,-,N/A,,Clear,170,2013-08-18 07:13:00
2:34 AM,62.6,57.2,82,30.08,10.0,South,3.5,-,N/A,,Clear,170,2013-08-18 07:34:00
2:54 AM,60.8,57.2,88,30.08,10.0,South,3.5,-,N/A,,Clear,180,2013-08-18 07:54:00
3:13 AM,60.8,57.2,88,30.08,10.0,Calm,Calm,-,N/A,,Clear,0,2013-08-18 08:13:00
3:34 AM,60.8,55.4,82,30.07,10.0,South,4.6,-,N/A,,Scattered Clouds,170,2013-08-18 08:34:00
3:54 AM,60.8,57.2,88,30.07,10.0,South,4.6,-,N/A,,Scattered Clouds,170,2013-08-18 08:54:00
4:13 AM,60.8,55.4,82,30.07,10.0,SSE,4.6,-,N/A,,Scattered Clouds,160,2013-08-18 09:13:00
4:34 AM,60.8,55.4,82,30.07,10.0,South,3.5,-,N/A,,Clear,170,2013-08-18 09:34:00
4:54 AM,59.0,55.4,88,30.07,10.0,SSE,5.8,-,N/A,,Clear,160,2013-08-18 09:54:00
5:13 AM,59.0,55.4,88,30.06,10.0,South,4.6,-,N/A,,Clear,170,2013-08-18 10:13:00
5:34 AM,59.0,55.4,88,30.06,10.0,South,4.6,-,N/A,,Clear,170,2013-08-18 10:34:00
5:54 AM,57.2,55.4,94,30.05,10.0,South,4.6,-,N/A,,Clear,170,2013-08-18 10:54:00
6:13 AM,59.0,55.4,88,30.05,10.0,South,5.8,-,N/A,,Clear,170,2013-08-18 11:13:00
6:34 AM,59.0,55.4,88,30.05,10.0,South,4.6,-,N/A,,Clear,170,2013-08-18 11:34:00
6:53 AM,59.0,55.4,88,30.05,10.0,South,4.6,-,N/A,,Clear,170,2013-08-18 11:53:00
7:13 AM,60.8,57.2,88,30.05,10.0,Calm,Calm,-,N/A,,Clear,0,2013-08-18 12:13:00
7:34 AM,62.6,57.2,82,30.05,10.0,South,4.6,-,N/A,,Clear,170,2013-08-18 12:34:00
7:53 AM,64.4,59.0,83,30.06,10.0,South,3.5,-,N/A,,Clear,180,2013-08-18 12:53:00
8:13 AM,66.2,60.8,83,30.06,10.0,South,5.8,-,N/A,,Clear,180,2013-08-18 13:13:00
8:34 AM,69.8,60.8,73,30.06,10.0,South,6.9,-,N/A,,Clear,190,2013-08-18 13:34:00
8:53 AM,71.6,60.8,69,30.06,10.0,SSW,8.1,-,N/A,,Clear,200,2013-08-18 13:53:00
9:13 AM,71.6,60.8,69,30.06,10.0,SSW,12.7,16.1,N/A,,Clear,200,2013-08-18 14:13:00
9:34 AM,73.4,60.8,65,30.05,10.0,SSW,10.4,-,N/A,,Clear,200,2013-08-18 14:34:00
9:53 AM,75.2,60.8,61,30.05,10.0,South,10.4,17.3,N/A,,Clear,190,2013-08-18 14:53:00
10:13 AM,75.2,59.0,57,30.04,10.0,SSW,18.4,23.0,N/A,,Clear,200,2013-08-18 15:13:00
10:34 AM,77.0,60.8,57,30.04,10.0,SSW,16.1,24.2,N/A,,Clear,200,2013-08-18 15:34:00
10:53 AM,78.8,60.8,54,30.03,10.0,South,18.4,23.0,N/A,,Clear,190,2013-08-18 15:53:00
11:13 AM,78.8,60.8,54,30.03,10.0,South,18.4,25.3,N/A,,Clear,190,2013-08-18 16:13:00
11:34 AM,78.8,60.8,54,30.03,10.0,South,17.3,23.0,N/A,,Clear,190,2013-08-18 16:34:00
11:54 AM,78.8,60.8,54,30.02,10.0,South,18.4,26.5,N/A,,Clear,190,2013-08-18 16:54:00
12:13 PM,80.6,62.6,54,30.02,10.0,South,17.3,26.5,N/A,,Clear,190,2013-08-18 17:13:00
12:34 PM,78.8,60.8,54,30.01,10.0,South,16.1,23.0,N/A,,Clear,180,2013-08-18 17:34:00
12:54 PM,80.6,62.6,54,30.01,10.0,South,18.4,25.3,N/A,,Clear,190,2013-08-18 17:54:00
1:13 PM,80.6,64.4,58,30.01,10.0,South,13.8,23.0,N/A,,Clear,190,2013-08-18 18:13:00
1:34 PM,80.6,62.6,54,30.01,10.0,South,13.8,24.2,N/A,,Clear,190,2013-08-18 18:34:00
1:53 PM,82.4,62.6,51,30.01,10.0,South,16.1,23.0,N/A,,Clear,190,2013-08-18 18:53:00
2:14 PM,80.6,62.6,54,30.02,10.0,SSW,13.8,20.7,N/A,,Clear,200,2013-08-18 19:14:00
2:33 PM,82.4,64.4,54,30.01,10.0,SSW,18.4,23.0,N/A,,Clear,200,2013-08-18 19:33:00
2:53 PM,82.4,64.4,54,30.00,10.0,South,13.8,21.9,N/A,,Clear,180,2013-08-18 19:53:00
3:14 PM,80.6,62.6,54,30.00,10.0,South,13.8,23.0,N/A,,Clear,180,2013-08-18 20:14:00
3:33 PM,82.4,64.4,54,30.01,10.0,South,13.8,-,N/A,,Clear,190,2013-08-18 20:33:00
3:53 PM,80.6,64.4,58,30.01,10.0,South,15.0,18.4,N/A,,Clear,180,2013-08-18 20:53:00
4:14 PM,82.4,64.4,54,30.00,10.0,South,18.4,21.9,N/A,,Clear,190,2013-08-18 21:14:00
4:33 PM,82.4,64.4,54,30.00,10.0,South,15.0,20.7,N/A,,Clear,190,2013-08-18 21:33:00
4:53 PM,82.4,64.4,54,30.00,10.0,South,15.0,19.6,N/A,,Clear,180,2013-08-18 21:53:00
5:14 PM,80.6,64.4,58,29.99,10.0,South,15.0,-,N/A,,Clear,180,2013-08-18 22:14:00
5:33 PM,80.6,64.4,58,29.99,10.0,South,15.0,-,N/A,,Clear,180,2013-08-18 22:33:00
5:53 PM,80.6,64.4,58,29.99,10.0,South,12.7,18.4,N/A,,Scattered Clouds,180,2013-08-18 22:53:00
6:14 PM,80.6,64.4,58,29.99,10.0,South,8.1,-,N/A,,Scattered Clouds,180,2013-08-18 23:14:00
6:33 PM,78.8,64.4,61,29.98,10.0,South,11.5,16.1,N/A,,Clear,180,2013-08-18 23:33:00
6:54 PM,78.8,64.4,61,29.97,10.0,South,8.1,-,N/A,,Clear,190,2013-08-18 23:54:00
7:14 PM,78.8,64.4,61,29.96,10.0,South,10.4,-,N/A,,Clear,180,2013-08-19 00:14:00
7:33 PM,77.0,64.4,65,29.96,10.0,South,9.2,-,N/A,,Scattered Clouds,180,2013-08-19 00:33:00
7:54 PM,75.2,64.4,69,29.95,10.0,South,8.1,-,N/A,,Clear,180,2013-08-19 00:54:00
8:14 PM,75.2,64.4,69,29.95,10.0,South,8.1,-,N/A,,Clear,180,2013-08-19 01:14:00
8:33 PM,75.2,64.4,69,29.95,10.0,South,6.9,-,N/A,,Clear,180,2013-08-19 01:33:00
8:54 PM,73.4,64.4,73,29.95,10.0,South,6.9,-,N/A,,Clear,180,2013-08-19 01:54:00
9:14 PM,73.4,64.4,73,29.95,10.0,South,6.9,-,N/A,,Clear,180,2013-08-19 02:14:00
9:33 PM,73.4,64.4,73,29.96,10.0,South,6.9,-,N/A,,Clear,180,2013-08-19 02:33:00
9:54 PM,71.6,64.4,78,29.97,10.0,South,5.8,-,N/A,,Clear,180,2013-08-19 02:54:00
10:14 PM,71.6,62.6,73,29.96,10.0,South,6.9,-,N/A,,Clear,170,2013-08-19 03:14:00
10:33 PM,71.6,62.6,73,29.95,10.0,SSE,6.9,-,N/A,,Clear,160,2013-08-19 03:33:00
10:54 PM,69.8,62.6,78,29.96,10.0,South,4.6,-,N/A,,Clear,170,2013-08-19 03:54:00
11:14 PM,69.8,62.6,78,29.97,10.0,South,4.6,-,N/A,,Clear,180,2013-08-19 04:14:00
11:33 PM,69.8,62.6,78,29.99,10.0,Calm,Calm,-,N/A,,Clear,0,2013-08-19 04:33:00
11:54 PM,69.8,62.6,78,29.98,10.0,SSE,4.6,-,N/A,,Clear,160,2013-08-19 04:54:00